TimeEST,TemperatureF,Dew PointF,Humidity,Sea Level PressureIn,VisibilityMPH,Wind Direction,Wind SpeedMPH,Gust SpeedMPH,PrecipitationIn,Events,Conditions,WindDirDegrees,DateUTC
12:56 AM,10.9,-2.0,56,30.15,10.0,West,3.5,-,N/A,,Scattered Clouds,280,2013-01-24 05:56:00
1:56 AM,7.0,-2.9,64,30.14,10.0,Calm,Calm,-,N/A,,Scattered Clouds,0,2013-01-24 06:56:00
2:56 AM,6.1,-4.0,63,30.12,10.0,NNE,3.5,-,N/A,,Scattered Clouds,20,2013-01-24 07:56:00
3:56 AM,6.1,-2.9,67,30.12,10.0,Calm,Calm,-,N/A,,Scattered Clouds,0,2013-01-24 08:56:00
4:56 AM,7.0,-2.0,67,30.12,10.0,Calm,Calm,-,N/A,,Mostly Cloudy,0,2013-01-24 09:56:00
5:56 AM,12.0,1.9,64,30.14,10.0,North,5.8,-,N/A,,Mostly Cloudy,350,2013-01-24 10:56:00
6:56 AM,14.0,3.0,62,30.16,10.0,North,8.1,-,N/A,,Overcast,350,2013-01-24 11:56:00
7:56 AM,14.0,3.0,62,30.17,10.0,North,6.9,-,N/A,,Mostly Cloudy,360,2013-01-24 12:56:00
8:56 AM,17.1,3.9,56,30.17,10.0,North,11.5,-,N/A,,Scattered Clouds,350,2013-01-24 13:56:00
10:56 AM,18.0,-0.0,45,30.19,10.0,NNW,17.3,27.6,N/A,,Partly Cloudy,330,2013-01-24 15:56:00
11:56 AM,19.0,-0.9,42,30.17,10.0,NW,24.2,32.2,N/A,,Partly Cloudy,320,2013-01-24 16:56:00
12:56 PM,19.9,-0.9,40,30.18,10.0,NNW,26.5,36.8,N/A,,Scattered Clouds,330,2013-01-24 17:56:00
1:56 PM,21.0,-0.9,38,30.19,10.0,NW,20.7,28.8,N/A,,Partly Cloudy,310,2013-01-24 18:56:00
2:56 PM,21.9,-0.0,38,30.20,10.0,NNW,17.3,27.6,N/A,,Partly Cloudy,330,2013-01-24 19:56:00
3:56 PM,21.9,-2.0,35,30.21,10.0,NW,17.3,26.5,N/A,,Partly Cloudy,320,2013-01-24 20:56:00
4:56 PM,21.0,-2.0,36,30.24,10.0,NW,17.3,28.8,N/A,,Partly Cloudy,310,2013-01-24 21:56:00
5:56 PM,19.9,-2.9,37,30.28,10.0,WNW,16.1,28.8,N/A,,Partly Cloudy,300,2013-01-24 22:56:00
6:56 PM,19.9,-2.9,37,30.29,10.0,WNW,16.1,28.8,N/A,,Clear,300,2013-01-24 23:56:00
7:56 PM,19.0,-2.0,40,30.31,10.0,WNW,19.6,27.6,N/A,,Clear,290,2013-01-25 00:56:00
8:56 PM,18.0,-0.9,44,30.32,10.0,WNW,15.0,24.2,N/A,,Clear,300,2013-01-25 01:56:00
9:56 PM,17.1,-0.9,45,30.33,10.0,WNW,12.7,-,N/A,,Clear,290,2013-01-25 02:56:00
10:56 PM,16.0,-0.0,49,30.34,10.0,WNW,11.5,-,N/A,,Clear,290,2013-01-25 03:56:00
11:56 PM,16.0,-0.0,49,30.35,10.0,WNW,10.4,-,N/A,,Clear,300,2013-01-25 04:56:00